1497924000.29,29957,20.5,74546.3,4.07,-27.77,-28.09,0,*78
1497924001.52,29958,20.5,74540.3,4.07,-27.45,-27.71,0,*76
1497924002.75,29959,20.5,74546.0,4.07,-27.07,-27.39,0,*7D
1497924003.96,29960,20.5,74546.3,4.07,-27.07,-27.29,0,*76
1497924005.16,29961,20.5,74546.0,4.07,-27.55,-27.77,0,*7B
1497924006.36,29962,20.5,74542.3,4.07,-27.77,-27.93,0,*72
1497924007.55,29963,20.44,74542.8,4.07,-27.55,-27.77,0,*79
1497924008.78,29964,20.5,74546.3,4.07,-27.61,-27.77,0,*79
1497924010.02,29965,20.5,74544.3,4.07,-27.29,-27.61,0,*73
1497924011.24,29966,20.5,74546.0,4.07,-27.23,-27.55,0,*7D
1497924012.45,29967,20.44,74544.5,4.07,-27.29,-27.71,0,*70
1497924013.67,29968,20.5,74544.8,4.07,-27.13,-27.45,0,*71
1497924014.87,29969,20.5,74546.0,4.07,-27.55,-27.89,0,*72
1497924016.07,29970,20.5,74544.0,4.07,-27.71,-27.93,0,*77
1497924017.26,29971,20.44,74544.5,4.07,-27.71,-27.93,0,*76
1497924018.49,29972,20.5,74546.8,4.07,-27.71,-28.05,0,*75
1497924019.73,29973,20.44,74542.8,4.07,-27.61,-27.93,0,*75
1497924020.96,29974,20.44,74542.0,4.07,-27.61,-27.89,0,*79
1497924022.19,29975,20.44,74544.0,4.07,-27.29,-27.61,0,*72
1497924023.42,29976,20.5,74544.0,4.07,-27.45,-27.71,0,*7A
1497924024.67,29977,20.44,74542.8,4.05,-27.45,-27.77,0,*7F
1497924025.9,29978,20.44,74544.0,4.05,-27.55,-27.89,0,*70
1497924027.12,29979,20.44,74544.0,4.07,-27.77,-28.09,0,*74
1497924028.33,29980,20.44,74544.0,4.07,-27.29,-27.71,0,*79
1497924029.58,29981,20.44,74542.3,4.05,-27.13,-27.39,0,*7F
1497924030.81,29982,20.5,74546.0,4.07,-27.07,-27.39,0,*7B
1497924032.06,29983,20.44,74546.0,4.05,-27.13,-27.45,0,*76
1497924033.28,29984,20.5,74544.5,4.07,-27.39,-27.71,0,*7C
1497924034.54,29985,20.5,74544.5,4.05,-27.61,-27.77,0,*74
1497924035.77,29986,20.5,74544.8,4.07,-27.45,-27.77,0,*73
1497924037.02,29987,20.44,74542.8,4.07,-27.23,-27.61,0,*75
1497924038.27,29988,20.44,74540.5,4.07,-27.23,-27.61,0,*7A
1497924039.47,29989,20.5,74546.8,4.07,-27.29,-27.71,0,*70
1497924040.67,29990,20.5,74548.5,4.07,-27.55,-27.89,0,*74
1497924041.9,29991,20.5,74544.5,4.07,-27.45,-27.77,0,*75
1497924043.12,29992,20.5,74544.8,4.07,-27.45,-27.77,0,*76
1497924044.38,29993,20.44,74546.3,4.05,-27.61,-27.93,0,*79
1497924045.63,29994,20.5,74544.8,4.07,-27.39,-27.61,0,*7C
1497924046.84,29995,20.5,74548.5,4.07,-27.55,-27.89,0,*71
1497924048.04,29996,20.44,74546.3,4.07,-27.29,-27.77,0,*78
1497924049.29,29997,20.44,74542.3,4.05,-27.13,-27.45,0,*73
1497924050.52,29998,20.44,74544.0,4.07,-27.07,-27.39,0,*70
1497924051.74,29999,20.44,74540.0,4.07,-27.07,-27.45,0,*7A
1497924052.97,30000,20.5,74546.5,4.07,-27.29,-27.61,0,*71
1497924054.2,30001,20.44,74542.8,4.07,-27.45,-27.89,0,*7C
1497924055.43,30002,20.5,74546.3,4.07,-27.71,-28.05,0,*73
1497924056.66,30003,20.44,74546.3,4.07,-27.71,-28.05,0,*72
1497924057.91,30004,20.5,74544.8,4.05,-27.77,-28.05,0,*71
1497924059.14,30005,20.44,74544.3,4.07,-27.45,-27.77,0,*79
1497924060.39,30006,20.5,74546.3,4.07,-27.39,-27.61,0,*76
1497924061.6,30007,20.44,74546.3,4.07,-27.29,-27.71,0,*77
1497924062.83,30008,20.44,74542.0,4.05,-27.29,-27.71,0,*7A
1497924064.08,30009,20.44,74542.5,4.09,-27.23,-27.67,0,*7A
1497924065.29,30010,20.44,74542.8,4.07,-27.29,-27.71,0,*71
1497924066.51,30011,20.5,74546.8,4.07,-27.39,-27.71,0,*71
1497924067.74,30012,20.44,74544.8,4.07,-27.23,-27.55,0,*7F
1497924068.99,30013,20.44,74544.0,4.07,-26.77,-26.93,0,*75
1497924070.24,30014,20.44,74546.3,4.07,-26.93,-27.23,0,*72
1497924071.47,30015,20.44,74544.8,4.07,-27.07,-27.39,0,*74
1497924072.72,30016,20.44,74546.3,4.09,-27.19,-27.55,0,*7C
1497924073.97,30017,20.44,74542.3,4.09,-27.23,-27.51,0,*70
1497924075.2,30018,20.44,74546.3,4.09,-27.07,-27.51,0,*79
1497924076.42,30019,20.44,74540.0,4.07,-27.13,-27.45,0,*76
1497924077.67,30020,20.44,74544.8,4.09,-27.23,-27.67,0,*71
1497924078.9,30021,20.5,74546.8,4.11,-27.51,-27.83,0,*76
1497924080.12,30022,20.44,74546.3,4.09,-27.55,-27.89,0,*72
1497924081.37,30023,20.5,74546.0,4.11,-27.39,-27.83,0,*7A
1497924082.62,30024,20.5,74546.8,4.09,-27.19,-27.71,0,*7B
1497924083.87,30025,20.44,74540.8,4.07,-27.23,-27.61,0,*7C
1497924085.09,30026,20.5,74546.8,4.07,-27.23,-27.71,0,*7E
1497924086.29,30027,20.44,74542.8,4.07,-27.13,-27.55,0,*7A
1497924087.55,30028,20.44,74544.5,4.09,-27.23,-27.67,0,*79
1497924088.79,30029,20.5,74544.5,4.09,-27.19,-27.55,0,*70
1497924090.04,30030,20.5,74544.5,4.09,-27.19,-27.51,0,*7C
1497924091.29,30031,20.44,74546.3,4.09,-27.35,-27.67,0,*76
1497924092.53,30032,20.5,74546.3,4.09,-27.19,-27.55,0,*7A
1497924093.76,30033,20.44,74542.5,4.09,-27.07,-27.51,0,*70
1497924095.02,30034,20.5,74544.5,4.09,-27.07,-27.35,0,*75
1497924096.28,30035,20.5,74548.0,4.09,-27.03,-27.35,0,*70
1497924097.53,30036,20.44,74546.3,4.09,-27.03,-27.35,0,*73
1497924098.81,30037,20.44,74542.5,4.09,-27.39,-27.83,0,*76
1497924100.06,30038,20.44,74544.3,4.09,-27.39,-27.71,0,*74
1497924101.28,30039,20.5,74544.5,4.13,-27.51,-27.67,0,*77
1497924102.48,30040,20.44,74542.0,4.11,-27.55,-27.89,0,*7F
1497924103.74,30041,20.44,74542.8,4.09,-27.51,-27.83,0,*79
1497924104.96,30042,20.44,74542.5,4.09,-27.55,-27.89,0,*74
1497924106.19,30043,20.44,74540.5,4.09,-27.51,-27.89,0,*71
1497924107.42,30044,20.44,74542.0,4.09,-27.51,-27.89,0,*76
1497924108.62,30045,20.5,74544.0,4.07,-27.55,-27.93,0,*76
1497924109.85,30046,20.44,74546.3,4.07,-27.71,-28.05,0,*73
1497924111.07,30047,20.44,74544.3,4.07,-27.77,-28.09,0,*78
1497924112.3,30048,20.5,74544.8,4.07,-27.61,-27.93,0,*7C
1497924113.53,30049,20.44,74546.5,4.07,-27.45,-27.89,0,*70
1497924114.76,30050,20.44,74544.0,4.07,-27.77,-28.05,0,*72
1497924115.99,30051,20.44,74542.8,4.07,-27.71,-28.05,0,*75
1497924117.25,30052,20.5,74544.8,4.09,-27.55,-27.99,0,*74
1497924118.51,30053,20.44,74546.3,4.07,-27.61,-28.05,0,*76
1497924119.74,30054,20.44,74546.3,4.07,-27.71,-28.05,0,*70
1497924120.99,30055,20.44,74544.8,4.05,-27.55,-28.05,0,*75
1497924122.24,30056,20.5,74546.5,4.05,-27.71,-28.09,0,*7C
1497924123.5,30057,20.44,74542.0,4.05,-27.71,-28.09,0,*7D
1497924124.75,30058,20.44,74546.0,4.05,-27.39,-27.77,0,*78
1497924125.95,30059,20.44,74542.8,4.07,-27.29,-27.71,0,*7C
1497924127.24,30060,20.44,74540.5,4.05,-27.61,-28.05,0,*74
1497924128.47,30061,20.44,74546.3,4.07,-27.77,-28.09,0,*7C
1497924129.69,30062,20.44,74542.3,4.05,-27.71,-27.93,0,*77
1497924130.95,30063,20.44,74540.8,4.05,-27.45,-27.89,0,*7A
1497924132.15,30064,20.44,74542.3,4.07,-27.55,-27.89,0,*7E
1497924133.38,30065,20.44,74542.5,4.05,-27.71,-28.15,0,*71
1497924134.65,30066,20.44,74546.8,4.05,-27.61,-28.15,0,*73
1497924135.9,30067,20.44,74544.8,4.05,-27.77,-28.09,0,*78
1497924137.13,30068,20.44,74544.0,4.05,-27.77,-28.15,0,*7A
1497924138.36,30069,20.44,74544.5,4.03,-27.77,-28.09,0,*70
1497924139.58,30070,20.44,74542.8,4.03,-27.51,-27.83,0,*71
1497924140.82,30071,20.44,74540.8,4.03,-27.35,-27.83,0,*72
1497924142.08,30072,20.44,74546.3,4.01,-27.67,-27.99,0,*7F
1497924143.28,30073,20.44,74544.0,4.03,-27.51,-27.93,0,*73
1497924144.5,30074,20.44,74544.0,4.03,-27.77,-28.09,0,*7C
1497924145.7,30075,20.5,74546.3,4.03,-27.51,-27.93,0,*75
1497924146.94,30076,20.44,74544.5,4.03,-27.35,-27.83,0,*75
1497924148.17,30077,20.5,74548.0,4.03,-26.97,-27.29,0,*7D
1497924149.41,30078,20.44,74540.8,4.03,-26.97,-27.29,0,*72
1497924150.65,30079,20.44,74540.5,4.03,-27.19,-27.61,0,*78
1497924151.87,30080,20.44,74544.3,4.03,-27.45,-27.93,0,*7A
1497924153.1,30081,20.44,74542.8,4.03,-27.67,-27.99,0,*71
1497924154.33,30082,20.44,74544.0,4.03,-27.67,-28.09,0,*74
1497924155.52,30083,20.44,74540.5,4.03,-27.51,-27.93,0,*7C
1497924156.74,30084,20.44,74542.5,4.03,-27.51,-27.83,0,*7A
1497924157.99,30085,20.44,74542.8,4.03,-27.45,-27.83,0,*7E
1497924159.23,30086,20.44,74544.3,4.05,-27.29,-27.71,0,*7C
1497924160.45,30087,20.44,74542.0,4.01,-27.55,-27.89,0,*75
1497924161.7,30088,20.44,74546.3,4.03,-27.19,-27.61,0,*76
1497924162.91,30089,20.44,74542.3,4.03,-27.19,-27.67,0,*71
1497924164.14,30090,20.44,74546.3,4.03,-27.67,-27.99,0,*71
1497924165.39,30091,20.44,74542.8,4.03,-27.35,-27.83,0,*7C
1497924166.64,30092,20.44,74544.8,4.01,-27.35,-27.71,0,*70
1497924167.9,30093,20.44,74544.5,4.03,-27.61,-27.99,0,*74
1497924169.12,30094,20.5,74546.3,4.03,-27.77,-28.09,0,*72
1497924170.38,30095,20.5,74544.5,4.03,-27.61,-27.99,0,*72
1497924171.6,30096,20.44,74544.8,4.03,-27.83,-28.15,0,*76
1497924172.81,30097,20.44,74542.5,4.03,-27.77,-28.15,0,*7C
1497924174.03,30098,20.44,74542.3,4.03,-27.67,-28.05,0,*73
1497924175.32,30099,20.44,74542.3,4.01,-26.97,-27.39,0,*7E
1497924176.57,30100,20.44,74546.3,4.01,-27.03,-27.35,0,*7F
1497924177.82,30101,20.44,74544.0,4.01,-27.19,-27.51,0,*77
1497924179.02,30102,20.44,74542.3,4.03,-27.29,-27.77,0,*71
1497924180.27,30103,20.44,74542.3,4.03,-27.45,-27.83,0,*71
1497924181.49,30104,20.44,74542.0,4.03,-27.35,-27.77,0,*7A
1497924182.74,30105,20.44,74540.8,4.05,-27.39,-27.71,0,*77
1497924183.96,30106,20.44,74540.3,4.03,-27.19,-27.67,0,*77
1497924185.17,30107,20.44,74544.0,4.03,-27.19,-27.77,0,*77
1497924186.42,30108,20.44,74542.0,4.03,-26.93,-27.19,0,*73
1497924187.64,30109,20.44,74546.3,4.03,-27.19,-27.67,0,*78
1497924188.83,30110,20.44,74540.5,4.03,-27.51,-27.77,0,*7D
1497924190.06,30111,20.44,74540.0,4.03,-27.61,-27.93,0,*75
1497924191.32,30112,20.44,74544.3,4.03,-27.61,-28.09,0,*7A
1497924192.58,30113,20.44,74542.0,4.03,-27.61,-28.09,0,*7B
1497924193.8,30114,20.44,74540.0,4.03,-27.61,-27.93,0,*70
1497924195.04,30115,20.44,74542.8,4.01,-27.67,-28.15,0,*74
1497924196.26,30116,20.44,74540.5,4.03,-27.51,-27.83,0,*70
1497924197.51,30117,20.44,74540.8,4.01,-27.19,-27.55,0,*74
1497924198.74,30118,20.44,74540.3,4.03,-27.07,-27.35,0,*70
1497924199.96,30119,20.44,74542.8,4.03,-27.19,-27.67,0,*79
1497924201.16,30120,20.44,74542.0,4.03,-27.29,-27.67,0,*70
1497924202.39,30121,20.44,74546.3,4.05,-27.13,-27.55,0,*7F
1497924203.62,30122,20.44,74540.8,4.05,-27.07,-27.55,0,*79
1497924204.87,30123,20.44,74542.5,4.05,-27.23,-27.71,0,*78
1497924206.12,30124,20.44,74542.3,4.05,-27.39,-27.77,0,*72
1497924207.35,30125,20.44,74544.5,4.05,-27.55,-27.89,0,*78
1497924208.64,30126,20.44,74544.0,4.05,-27.61,-28.05,0,*77
1497924209.86,30127,20.44,74542.5,4.05,-27.55,-27.89,0,*7A
1497924211.09,30128,20.44,74544.3,4.03,-27.67,-28.09,0,*75
1497924212.29,30129,20.44,74544.0,4.03,-27.67,-28.15,0,*79
1497924213.54,30130,20.44,74546.3,4.03,-27.35,-27.83,0,*76
1497924214.76,30131,20.44,74546.0,4.05,-27.13,-27.55,0,*7E
1497924216.04,30132,20.44,74546.5,4.05,-26.93,-27.23,0,*75
1497924217.27,30133,20.44,74542.8,4.05,-27.07,-27.55,0,*79
1497924218.53,30134,20.5,74546.3,4.05,-27.07,-27.39,0,*74
1497924219.73,30135,20.44,74542.5,4.07,-26.87,-27.13,0,*76
1497924220.95,30136,20.44,74540.8,4.05,-26.45,-26.87,0,*75
1497924222.23,30137,20.44,74540.8,4.05,-26.29,-26.71,0,*77
1497924223.45,30138,20.44,74546.3,4.05,-26.23,-26.61,0,*73
1497924224.65,30139,20.44,74542.0,4.07,-26.61,-26.87,0,*7E
1497924225.9,30140,20.44,74540.5,4.07,-26.29,-26.77,0,*73
1497924227.19,30141,20.44,74538.8,4.09,-26.81,-27.19,0,*77
1497924228.41,30142,20.44,74542.3,4.11,-27.03,-27.23,0,*7F
1497924229.64,30143,20.44,74542.8,4.11,-26.81,-27.07,0,*73
1497924230.92,30144,20.44,74542.0,4.09,-26.97,-27.23,0,*7C
1497924232.17,30145,20.44,74542.0,4.09,-27.19,-27.67,0,*7A
1497924233.4,30146,20.44,74540.5,4.09,-27.07,-27.51,0,*73
1497924234.66,30147,20.44,74540.5,4.09,-27.23,-27.67,0,*71
1497924235.88,30148,20.44,74542.8,4.11,-27.35,-27.67,0,*70
1497924237.11,30149,20.44,74536.5,4.11,-27.35,-27.67,0,*71
1497924238.33,30150,20.44,74540.3,4.11,-27.51,-27.83,0,*71
1497924239.56,30151,20.44,74540.0,4.09,-27.55,-27.89,0,*77
1497924240.81,30152,20.44,74542.0,4.09,-27.67,-27.83,0,*7F
1497924242.09,30153,20.44,74542.5,4.09,-27.39,-27.83,0,*75
1497924243.31,30154,20.44,74540.0,4.11,-27.55,-27.83,0,*71
1497924244.55,30155,20.44,74542.5,4.07,-27.61,-27.89,0,*7A
1497924245.78,30156,20.44,74546.0,4.09,-27.51,-27.89,0,*74
1497924247.03,30157,20.44,74546.5,4.09,-27.55,-27.83,0,*7B
1497924248.28,30158,20.44,74542.3,4.09,-27.23,-27.55,0,*7E
1497924249.56,30159,20.44,74540.0,4.09,-26.97,-27.23,0,*70
1497924250.81,30160,20.44,74540.5,4.09,-27.35,-27.71,0,*74
1497924252.01,30161,20.44,74542.3,4.11,-27.51,-27.89,0,*79
1497924253.23,30162,20.44,74544.3,4.11,-27.35,-27.71,0,*7F
1497924254.46,30163,20.44,74544.3,4.09,-27.07,-27.55,0,*70
1497924255.71,30164,20.44,74540.3,4.09,-27.51,-27.83,0,*7F
1497924256.93,30165,20.44,74542.5,4.07,-27.39,-27.77,0,*75
1497924258.19,30166,20.44,74542.3,4.09,-27.23,-27.67,0,*72
1497924259.44,30167,20.44,74542.5,4.09,-27.39,-27.71,0,*7F
1497924260.64,30168,20.44,74540.3,4.11,-27.51,-27.89,0,*70
1497924261.84,30169,20.44,74542.3,4.11,-27.55,-27.89,0,*75
1497924263.09,30170,20.44,74540.0,4.09,-27.35,-27.71,0,*75
1497924264.37,30171,20.44,74540.3,4.09,-27.39,-27.83,0,*75
1497924265.62,30172,20.44,74540.0,4.09,-27.51,-27.83,0,*78
1497924266.87,30173,20.44,74542.0,4.09,-27.35,-27.71,0,*76
1497924268.09,30174,20.44,74544.8,4.11,-27.35,-27.71,0,*78
1497924269.34,30175,20.44,74540.3,4.09,-27.35,-27.71,0,*70
1497924270.58,30176,20.44,74540.8,4.09,-27.35,-27.71,0,*73
1497924271.82,30177,20.44,74546.3,4.09,-27.07,-27.51,0,*71
1497924273.07,30178,20.44,74540.8,4.09,-27.23,-27.67,0,*7D
1497924274.3,30179,20.44,74542.3,4.09,-27.51,-27.89,0,*79
1497924275.55,30180,20.44,74546.3,4.09,-27.23,-27.71,0,*7D
1497924276.78,30181,20.44,74540.8,4.09,-27.07,-27.55,0,*7C
1497924278.03,30182,20.44,74542.0,4.09,-27.23,-27.67,0,*78
1497924279.25,30183,20.44,74542.0,4.11,-27.19,-27.55,0,*78
1497924280.53,30184,20.44,74542.3,4.09,-27.39,-27.83,0,*7F
1497924281.77,30185,20.44,74544.8,4.09,-27.19,-27.67,0,*76
1497924283.03,30186,20.44,74540.0,4.09,-27.03,-27.39,0,*75
1497924284.25,30187,20.44,74540.8,4.11,-27.03,-27.35,0,*71
1497924285.48,30188,20.44,74544.0,4.11,-27.39,-27.71,0,*77
1497924286.7,30189,20.44,74540.0,4.11,-27.23,-27.51,0,*7F
1497924287.92,30190,20.44,74542.5,4.11,-27.35,-27.71,0,*72
1497924289.14,30191,20.44,74544.3,4.11,-27.19,-27.55,0,*7B
1497924290.37,30192,20.44,74542.5,4.11,-27.03,-27.39,0,*79
1497924291.57,30193,20.44,74542.5,4.11,-27.07,-27.55,0,*76
1497924292.8,30194,20.44,74542.0,4.09,-27.07,-27.55,0,*78
1497924294.05,30195,20.44,74544.0,4.09,-27.19,-27.51,0,*72
1497924295.25,30196,20.44,74540.3,4.11,-27.07,-27.51,0,*77
1497924296.48,30197,20.44,74542.0,4.11,-27.23,-27.67,0,*75
1497924297.7,30198,20.44,74540.8,4.11,-27.23,-27.71,0,*7D
1497924298.9,30199,20.44,74542.0,4.11,-27.51,-27.71,0,*79
1497924300.13,30200,20.44,74546.3,4.11,-27.35,-27.67,0,*7F
1497924301.38,30201,20.44,74540.3,4.13,-27.03,-27.35,0,*7E
1497924302.6,30202,20.44,74540.8,4.11,-27.35,-27.67,0,*7D
1497924303.83,30203,20.44,74540.3,4.11,-27.23,-27.67,0,*7B
1497924305.03,30204,20.44,74546.8,4.11,-27.03,-27.51,0,*7B
1497924306.25,30205,20.44,74542.5,4.11,-27.19,-27.67,0,*74
1497924307.48,30206,20.44,74542.3,4.11,-27.23,-27.67,0,*7E
1497924308.68,30207,20.44,74540.8,4.11,-27.07,-27.51,0,*7C
1497924309.91,30208,20.44,74544.0,4.11,-26.81,-27.07,0,*7F
1497924311.17,30209,20.44,74542.8,4.13,-26.93,-27.29,0,*73
1497924312.45,30210,20.44,74542.0,4.13,-26.97,-27.35,0,*72
1497924313.73,30211,20.44,74544.0,4.13,-26.77,-27.19,0,*73
1497924314.98,30212,20.44,74542.0,4.17,-27.07,-27.45,0,*7B
1497924316.26,30213,20.44,74546.0,4.17,-26.97,-27.45,0,*72
1497924317.51,30214,20.44,74540.3,4.17,-26.61,-26.97,0,*72
1497924318.74,30215,20.44,74544.0,4.17,-26.61,-26.87,0,*72
1497924319.99,30216,20.44,74540.0,4.19,-26.55,-26.77,0,*77
1497924321.21,30217,20.44,74542.5,4.19,-26.45,-26.71,0,*71
1497924322.45,30218,20.44,74542.8,4.21,-26.39,-26.55,0,*78
1497924323.71,30219,20.44,74542.8,4.21,-26.49,-26.81,0,*77
1497924324.96,30220,20.44,74540.3,4.21,-26.71,-27.03,0,*7D
1497924326.21,30221,20.44,74544.0,4.21,-26.55,-27.03,0,*7A
1497924327.42,30222,20.44,74538.8,4.23,-26.55,-26.87,0,*76
1497924328.62,30223,20.44,74542.3,4.23,-26.49,-26.87,0,*7A
1497924329.87,30224,20.44,74540.0,4.23,-26.55,-26.81,0,*76
1497924331.07,30225,20.44,74542.5,4.23,-26.65,-26.87,0,*72
1497924332.27,30226,20.44,74540.5,4.23,-26.65,-26.87,0,*71
1497924333.52,30227,20.44,74542.5,4.25,-26.49,-26.81,0,*7E
1497924334.75,30228,20.44,74546.3,4.25,-26.49,-26.87,0,*77
1497924336.0,30229,20.44,74540.3,4.25,-26.49,-26.77,0,*79
1497924337.25,30230,20.44,74544.8,4.25,-26.49,-26.81,0,*78
1497924338.47,30231,20.44,74542.3,4.27,-26.81,-27.29,0,*7C
1497924339.69,30232,20.44,74540.5,4.27,-27.03,-27.45,0,*7E
1497924340.94,30233,20.44,74540.5,4.27,-26.97,-27.35,0,*74
1497924342.17,30234,20.44,74540.3,4.27,-26.81,-27.03,0,*71
1497924343.39,30235,20.44,74536.8,4.27,-26.81,-27.13,0,*71
1497924344.59,30236,20.44,74540.8,4.27,-27.29,-27.51,0,*77
1497924345.81,30237,20.44,74540.8,4.29,-27.13,-27.45,0,*74
1497924347.04,30238,20.44,74540.3,4.27,-26.97,-27.29,0,*72
1497924348.27,30239,20.44,74542.0,4.29,-26.71,-27.07,0,*79
1497924349.51,30240,20.44,74544.8,4.29,-26.55,-26.93,0,*7D
1497924350.76,30241,20.44,74538.5,4.29,-26.71,-26.93,0,*7A
1497924351.99,30242,20.44,74540.8,4.29,-26.39,-26.71,0,*79
1497924353.24,30243,20.44,74542.5,4.29,-26.71,-26.81,0,*7B
1497924354.49,30244,20.44,74540.0,4.29,-26.55,-26.77,0,*73
1497924355.72,30245,20.44,74540.3,4.31,-26.39,-26.65,0,*72
1497924356.98,30246,20.44,74540.3,4.31,-26.49,-26.71,0,*73
1497924358.21,30247,20.44,74542.5,4.33,-26.77,-27.07,0,*7D
1497924359.46,30248,20.44,74540.5,4.31,-27.23,-27.67,0,*76
1497924360.66,30249,20.44,74538.5,4.33,-26.87,-27.07,0,*7C
1497924361.92,30250,20.44,74544.0,4.33,-26.77,-27.19,0,*74
1497924363.15,30251,20.44,74542.3,4.33,-26.77,-27.03,0,*7E
1497924364.38,30252,20.44,74540.8,4.33,-26.71,-27.03,0,*7B
1497924365.61,30253,20.44,74540.8,4.33,-27.03,-27.35,0,*7B
1497924366.84,30254,20.44,74538.0,4.33,-27.23,-27.51,0,*7C
1497924368.06,30255,20.44,74542.3,4.33,-27.35,-27.51,0,*7A
1497924369.33,30256,20.44,74540.3,4.35,-27.19,-27.35,0,*73
1497924370.56,30257,20.44,74540.3,4.35,-27.29,-27.51,0,*73
1497924371.78,30258,20.44,74542.5,4.33,-27.39,-27.71,0,*79
1497924373.0,30259,20.44,74540.8,4.33,-27.35,-27.55,0,*72
1497924374.23,30260,20.44,74540.5,4.33,-27.23,-27.51,0,*7B
1497924375.45,30261,20.44,74542.5,4.33,-26.87,-27.19,0,*79
1497924376.7,30262,20.44,74542.5,4.35,-26.71,-27.03,0,*7E
1497924377.95,30263,20.44,74542.3,4.35,-26.71,-26.87,0,*72
1497924379.22,30264,20.44,74536.8,4.35,-26.71,-26.97,0,*74
1497924380.47,30265,20.44,74540.5,4.39,-26.81,-27.03,0,*7A
1497924381.72,30266,20.44,74540.0,4.39,-26.33,-26.49,0,*7F
1497924382.95,30267,20.44,74542.5,4.39,-26.61,-26.87,0,*7B
1497924384.17,30268,20.44,74540.0,4.39,-26.65,-26.87,0,*70
1497924385.45,30269,20.44,74538.0,4.39,-26.71,-26.97,0,*75
1497924386.67,30270,20.44,74540.0,4.41,-26.29,-26.45,0,*70
1497924387.89,30271,20.44,74540.0,4.41,-26.23,-26.33,0,*7A
1497924389.12,30272,20.44,74538.0,4.41,-26.65,-26.93,0,*71
1497924390.34,30273,20.44,74542.8,4.43,-26.61,-27.03,0,*7E
1497924391.59,30274,20.44,74544.8,4.43,-26.61,-26.77,0,*7B
1497924392.84,30275,20.44,74542.0,4.43,-26.87,-27.19,0,*7B
1497924394.08,30276,20.44,74540.0,4.43,-27.03,-27.19,0,*75
1497924395.34,30277,20.44,74540.0,4.43,-26.77,-27.03,0,*7D
1497924396.59,30278,20.44,74540.0,4.43,-26.77,-27.03,0,*72
1497924397.82,30279,20.44,74546.5,4.45,-26.77,-27.07,0,*71
1497924399.04,30280,20.44,74540.5,4.45,-27.03,-27.23,0,*73
1497924400.27,30281,20.44,74542.8,4.45,-27.03,-27.23,0,*72
1497924401.52,30282,20.44,74544.3,4.45,-26.77,-27.19,0,*7A
1497924402.74,30283,20.44,74542.8,4.45,-26.71,-27.07,0,*72
1497924403.97,30284,20.44,74540.3,4.45,-26.61,-26.93,0,*78
1497924405.2,30285,20.44,74544.0,4.45,-26.49,-26.77,0,*79
1497924406.4,30286,20.44,74542.3,4.45,-26.49,-26.61,0,*7D
1497924407.62,30287,20.44,74542.8,4.47,-26.49,-26.65,0,*7A
1497924408.88,30288,20.44,74542.0,4.47,-26.29,-26.65,0,*73
1497924410.1,30289,20.44,74538.3,4.47,-26.45,-26.65,0,*78
1497924411.35,30290,20.44,74542.0,4.47,-26.17,-26.49,0,*79
1497924412.61,30291,20.44,74542.3,4.49,-26.17,-26.33,0,*7B
1497924413.85,30292,20.44,74540.5,4.51,-25.97,-26.23,0,*7B
1497924415.05,30293,20.44,74546.0,4.53,-26.23,-26.45,0,*74
1497924416.3,30294,20.44,74542.8,4.51,-26.45,-26.81,0,*79
1497924417.56,30295,20.44,74542.8,4.51,-26.97,-27.29,0,*74
1497924418.81,30296,20.44,74540.5,4.53,-26.97,-27.23,0,*7F
1497924420.04,30297,20.44,74544.8,4.53,-27.13,-27.39,0,*78
1497924421.28,30298,20.44,74540.5,4.53,-27.23,-27.45,0,*7F
1497924422.54,30299,20.44,74538.0,4.53,-27.45,-27.83,0,*74
1497924423.76,30300,20.44,74540.5,4.51,-27.51,-27.89,0,*78
1497924425.01,30301,20.44,74542.8,4.51,-27.45,-27.93,0,*77
1497924426.25,30302,20.44,74544.0,4.51,-27.39,-27.67,0,*74
1497924427.46,30303,20.44,74546.8,4.49,-27.03,-27.29,0,*7F
1497924428.71,30304,20.44,74544.5,4.51,-26.81,-27.07,0,*76
1497924429.96,30305,20.44,74542.0,4.51,-27.13,-27.39,0,*70
1497924431.2,30306,20.44,74542.5,4.51,-27.13,-27.45,0,*78
1497924432.44,30307,20.44,74540.3,4.51,-27.13,-27.45,0,*79
1497924433.69,30308,20.44,74542.8,4.51,-26.93,-27.13,0,*7C
1497924434.94,30309,20.44,74544.3,4.51,-26.65,-26.81,0,*7E
1497924436.19,30310,20.44,74538.5,4.51,-26.29,-26.49,0,*7A
1497924437.39,30311,20.44,74540.8,4.53,-26.39,-26.61,0,*72
1497924438.64,30312,20.44,74542.5,4.55,-26.33,-26.61,0,*7D
1497924439.85,30313,20.44,74542.8,4.53,-26.39,-26.65,0,*74
1497924441.12,30314,20.44,74542.8,4.55,-26.33,-26.55,0,*7C
1497924442.38,30315,20.44,74540.5,4.61,-26.33,-26.55,0,*7A
1497924443.58,30316,20.44,74540.3,4.57,-26.39,-26.65,0,*75
1497924444.78,30317,20.44,74542.0,4.57,-26.49,-26.87,0,*7F
1497924446.0,30318,20.44,74540.3,4.57,-26.39,-26.71,0,*7E
1497924447.23,30319,20.44,74544.8,4.61,-26.49,-26.81,0,*72
1497924448.44,30320,20.44,74546.3,4.61,-26.39,-26.65,0,*75
1497924449.66,30321,20.44,74540.8,4.61,-26.29,-26.49,0,*7B
1497924450.92,30322,20.44,74544.8,4.61,-26.33,-26.55,0,*7E
1497924452.17,30323,20.44,74540.8,4.61,-26.71,-26.97,0,*77
1497924453.42,30324,20.44,74540.8,4.63,-26.45,-26.77,0,*7B
1497924454.65,30325,20.44,74540.3,4.65,-26.45,-26.81,0,*75
1497924455.87,30326,20.44,74540.8,4.65,-26.45,-26.77,0,*7F
1497924457.09,30327,20.44,74540.5,4.65,-26.61,-26.93,0,*72
1497924458.32,30328,20.44,74540.5,4.65,-26.81,-27.07,0,*7F
1497924459.56,30329,20.44,74544.0,4.65,-26.93,-27.23,0,*7B
1497924460.84,30330,20.44,74542.5,4.63,-27.23,-27.35,0,*78
1497924462.09,30331,20.44,74546.3,4.63,-27.23,-27.77,0,*7F
1497924463.34,30332,20.44,74540.5,4.65,-27.45,-27.83,0,*71
1497924464.56,30333,20.44,74542.0,4.65,-27.51,-27.83,0,*75
1497924465.79,30334,20.44,74544.0,4.63,-27.29,-27.67,0,*71
1497924467.04,30335,20.44,74546.3,4.67,-27.07,-27.45,0,*78
1497924468.29,30336,20.44,74544.3,4.63,-27.35,-27.77,0,*7F
1497924469.51,30337,20.44,74544.5,4.63,-27.51,-27.93,0,*76
1497924470.73,30338,20.44,74546.3,4.63,-27.51,-27.93,0,*79
1497924471.94,30339,20.44,74540.3,4.65,-27.29,-27.67,0,*7A
1497924473.19,30340,20.44,74544.8,4.63,-26.97,-27.13,0,*75
1497924474.44,30341,20.44,74548.3,4.65,-26.77,-26.93,0,*75
1497924475.7,30342,20.44,74542.8,4.63,-26.77,-27.07,0,*7C
1497924476.92,30343,20.44,74546.3,4.65,-26.93,-27.13,0,*74
1497924478.18,30344,20.44,74544.5,4.63,-27.13,-27.35,0,*78
1497924479.43,30345,20.44,74544.3,4.63,-27.23,-27.51,0,*78
1497924480.63,30346,20.44,74542.8,4.65,-27.29,-27.67,0,*72
1497924481.88,30347,20.44,74544.0,4.65,-27.23,-27.61,0,*7F
1497924483.1,30348,20.44,74546.0,4.63,-27.51,-27.93,0,*7E
1497924484.35,30349,20.44,74542.8,4.63,-27.45,-27.77,0,*70
1497924485.61,30350,20.44,74542.0,4.63,-27.29,-27.61,0,*75
1497924486.82,30351,20.44,74546.3,4.65,-27.35,-27.77,0,*78
1497924488.08,30352,20.44,74540.0,4.63,-27.51,-27.83,0,*74
1497924489.3,30353,20.44,74544.0,4.63,-27.67,-27.93,0,*71
1497924490.56,30354,20.44,74540.8,4.63,-27.67,-27.99,0,*7C
1497924491.79,30355,20.44,74542.3,4.61,-27.71,-28.05,0,*72
1497924492.99,30356,20.44,74542.5,4.61,-27.55,-27.89,0,*7C
1497924494.22,30357,20.44,74546.3,4.61,-27.55,-27.99,0,*7C
1497924495.45,30358,20.44,74544.3,4.61,-27.39,-27.89,0,*78
1497924496.68,30359,20.44,74540.5,4.61,-27.51,-27.99,0,*76
1497924497.91,30360,20.44,74546.5,4.61,-27.51,-27.99,0,*7C
1497924499.14,30361,20.44,74544.3,4.61,-27.03,-27.35,0,*7C
1497924500.37,30362,20.44,74540.5,4.61,-27.29,-27.39,0,*7B
1497924501.61,30363,20.38,74542.3,4.61,-27.29,-27.35,0,*76
1497924502.81,30364,20.44,74542.3,4.57,-27.29,-27.67,0,*73